Le nostre stazioni meteo in Italia

Pubblicità
Il mio iltempo24.it
San Pietro Capofiume, Italia (16144): Temperatura & dewpoint: 24.03.2020 11:00:00 - 30.03.2020 11:00:00 (CEST)San Pietro Capofiume, Italia (16144): reduced air pressure: 24.03.2020 11:00:00 - 30.03.2020 11:00:00 (CEST)
Data & Tempo tt [°C] td [°C] ppp [hPa]
30.03.2020 11:00:00 14,6 9,0 1014,4
30.03.2020 10:00:00 11,5 8,0 1014,3
30.03.2020 09:00:00 8,6 6,9 1013,7
30.03.2020 08:00:00 7,2 5,7 1013,0
30.03.2020 07:00:00 6,2 4,5 1012,4
30.03.2020 06:00:00 6,5 4,8 1012,1
30.03.2020 05:00:00 4,8 3,1 1011,9
30.03.2020 04:00:00 5,4 - 1011,7
30.03.2020 03:00:00 7,1 4,1 1011,8
30.03.2020 02:00:00 8,3 4,7 1011,6
30.03.2020 01:00:00 8,7 4,5 1011,9
30.03.2020 00:00:00 8,7 3,7 1012,1
29.03.2020 23:00:00 10,1 4,0 1012,1
29.03.2020 22:00:00 11,3 3,6 1011,8
29.03.2020 21:00:00 12,6 3,3 1011,7
29.03.2020 20:00:00 14,2 3,3 1011,3
29.03.2020 19:00:00 17,0 3,3 1010,9
29.03.2020 18:00:00 19,0 2,8 1010,7
29.03.2020 17:00:00 20,3 3,9 1010,8
29.03.2020 16:00:00 20,2 3,4 1011,2
29.03.2020 15:00:00 20,0 4,1 1011,9
29.03.2020 14:00:00 19,5 4,0 1012,4
29.03.2020 13:00:00 18,4 4,9 1012,9
29.03.2020 12:00:00 16,8 5,4 1013,4
29.03.2020 11:00:00 14,8 6,4 1013,9
29.03.2020 10:00:00 10,7 6,1 1014,0
29.03.2020 09:00:00 7,0 5,0 1014,1
29.03.2020 08:00:00 4,2 2,9 1014,1
29.03.2020 07:00:00 3,3 1,8 1013,9
29.03.2020 06:00:00 3,9 2,4 1014,0
29.03.2020 05:00:00 4,3 2,6 1014,1
29.03.2020 04:00:00 4,5 2,8 1014,5
29.03.2020 03:00:00 4,5 2,7 1014,8
29.03.2020 02:00:00 4,5 2,7 1014,8
29.03.2020 01:00:00 7,0 3,6 1014,7
29.03.2020 00:00:00 7,0 3,6 1014,7
28.03.2020 23:00:00 8,8 4,4 1014,5
28.03.2020 22:00:00 9,3 4,1 1014,3
28.03.2020 21:00:00 10,7 4,8 1014,0
28.03.2020 20:00:00 - - -
28.03.2020 19:00:00 15,5 5,1 1013,2
28.03.2020 18:00:00 17,9 - 1013,2
28.03.2020 17:00:00 18,3 2,2 1013,5
28.03.2020 16:00:00 18,0 1,9 1013,9
28.03.2020 15:00:00 17,3 3,2 1014,5
28.03.2020 14:00:00 16,5 3,2 1015,2
28.03.2020 13:00:00 15,4 4,1 1015,7
28.03.2020 12:00:00 13,8 5,7 1016,1
28.03.2020 11:00:00 12,1 6,4 1016,3
28.03.2020 10:00:00 10,3 6,1 1016,4
28.03.2020 09:00:00 7,6 4,4 1016,5
28.03.2020 08:00:00 4,9 3,1 1016,5
28.03.2020 07:00:00 3,8 2,0 1016,5
28.03.2020 06:00:00 4,6 2,8 1016,6
28.03.2020 05:00:00 4,7 2,7 1016,8
28.03.2020 04:00:00 5,3 3,3 1017,2
28.03.2020 03:00:00 7,6 4,9 1017,6
28.03.2020 02:00:00 7,5 5,0 1017,9
28.03.2020 01:00:00 8,0 5,5 1018,3
28.03.2020 00:00:00 7,9 5,4 1018,3
27.03.2020 23:00:00 7,8 5,1 1018,2
27.03.2020 22:00:00 7,9 5,2 1018,2
27.03.2020 21:00:00 8,5 5,2 1017,8
27.03.2020 20:00:00 8,8 5,4 1016,9
27.03.2020 19:00:00 9,3 5,5 1016,5
27.03.2020 18:00:00 9,9 5,7 1016,2
27.03.2020 17:00:00 10,4 6,2 1016,2
27.03.2020 16:00:00 10,6 6,7 1016,4
27.03.2020 15:00:00 10,7 6,6 1016,7
27.03.2020 14:00:00 9,8 6,3 1017,0
27.03.2020 13:00:00 8,3 5,4 1017,3
27.03.2020 12:00:00 8,1 5,2 1017,0
27.03.2020 11:00:00 7,3 4,8 1016,5
27.03.2020 10:00:00 5,9 3,7 1016,1
27.03.2020 09:00:00 5,2 3,2 1015,9
27.03.2020 08:00:00 4,8 3,0 1015,2
27.03.2020 07:00:00 4,8 3,0 1015,0
27.03.2020 06:00:00 4,7 2,7 1015,1
27.03.2020 05:00:00 4,7 2,7 1015,0
27.03.2020 04:00:00 4,9 2,9 1015,0
27.03.2020 03:00:00 5,6 3,4 1015,3
27.03.2020 02:00:00 5,6 3,1 1015,7
27.03.2020 01:00:00 7,4 2,5 1015,8
27.03.2020 00:00:00 7,4 2,5 1016,2
26.03.2020 23:00:00 7,2 2,7 1016,2
26.03.2020 22:00:00 7,0 2,5 1016,0
26.03.2020 21:00:00 7,2 2,5 1015,7
26.03.2020 20:00:00 7,1 2,6 1015,2
26.03.2020 19:00:00 7,0 2,3 1014,9
26.03.2020 18:00:00 7,2 2,7 1014,6
26.03.2020 17:00:00 7,1 2,6 1014,6
26.03.2020 16:00:00 6,5 2,9 1014,7
26.03.2020 15:00:00 6,5 2,9 1015,0
26.03.2020 14:00:00 6,5 2,2 1014,8
26.03.2020 13:00:00 5,2 2,2 1015,2
26.03.2020 12:00:00 4,1 2,0 1015,8
26.03.2020 11:00:00 3,5 1,2 1015,8
26.03.2020 10:00:00 2,9 0,8 1015,9
26.03.2020 09:00:00 3,5 1,5 1015,7
26.03.2020 08:00:00 3,4 0,8 1015,4
26.03.2020 07:00:00 4,6 -1,0 1015,1
26.03.2020 06:00:00 4,5 -1,7 1015,1
26.03.2020 05:00:00 4,2 -2,7 1015,7
26.03.2020 04:00:00 4,3 -2,1 1016,4
26.03.2020 03:00:00 4,5 -2,4 1017,3
26.03.2020 02:00:00 4,5 -2,6 1017,8
26.03.2020 01:00:00 4,6 -2,5 1018,2
26.03.2020 00:00:00 4,9 -2,7 1018,9
25.03.2020 23:00:00 5,4 -2,4 1019,2
25.03.2020 22:00:00 5,6 -2,3 1019,2
25.03.2020 21:00:00 5,8 -2,3 1019,2
25.03.2020 20:00:00 5,6 -3,0 1019,1
25.03.2020 19:00:00 7,1 -3,2 1019,0
25.03.2020 18:00:00 7,5 -3,1 1019,2
25.03.2020 17:00:00 7,5 -3,4 1019,5
25.03.2020 16:00:00 7,4 -4,7 1019,9
25.03.2020 15:00:00 7,5 -3,7 1020,3
25.03.2020 14:00:00 8,3 -4,5 1020,6
25.03.2020 13:00:00 7,1 -5,0 1020,9
25.03.2020 12:00:00 7,3 -4,8 1021,1
25.03.2020 11:00:00 6,0 -3,9 1021,2
25.03.2020 10:00:00 5,3 -4,3 1021,4
25.03.2020 09:00:00 5,5 -3,8 1021,3
25.03.2020 08:00:00 5,4 -4,5 1021,5
25.03.2020 07:00:00 5,5 -6,1 1021,5
25.03.2020 06:00:00 6,0 -6,9 -
25.03.2020 05:00:00 6,0 -5,9 1022,2
25.03.2020 04:00:00 5,9 -5,4 1022,8
25.03.2020 03:00:00 5,8 -4,1 1023,4
25.03.2020 02:00:00 4,5 -3,8 1023,9
25.03.2020 01:00:00 5,9 -4,8 1024,2
25.03.2020 00:00:00 6,2 -5,5 1024,7
24.03.2020 23:00:00 5,8 -5,5 1025,1
24.03.2020 22:00:00 5,9 -5,4 1025,2
24.03.2020 21:00:00 7,0 -4,1 1025,3
24.03.2020 20:00:00 7,4 -4,7 1024,9
24.03.2020 19:00:00 8,2 -5,3 1024,5
24.03.2020 18:00:00 8,9 -8,2 1024,2
24.03.2020 17:00:00 10,0 -9,1 1024,4
24.03.2020 16:00:00 10,8 -9,0 1024,8
24.03.2020 15:00:00 10,9 -8,4 1025,2
24.03.2020 14:00:00 10,2 -9,5 1025,6
24.03.2020 13:00:00 10,6 -9,7 1025,9
24.03.2020 12:00:00 9,9 -9,7 1026,4
24.03.2020 11:00:00 - - -

tt = Temperatura
td = dewpoint
ppp = reduced air pressure

Stazioni seguenti

WeatherPro
AMSI
MeteoEarth